Weather History for Raton, NM

Change the Weather History Date:

Wednesday, November 27, 2013

  Actual Average (KTAD) Record (KTAD)
Temperature  
Mean Temperature 30 °F 35 °F  
Max Temperature 46 °F 50 °F 73 °F (1949)
Min Temperature 15 °F 21 °F -17 °F (1976)
Degree Days  
Heating Degree Days 34 30  
Month to date heating degree days 641  
Since 1 July heating degree days 1142  
Cooling Degree Days 0 0  
Month to date cooling degree days 0  
Year to date cooling degree days 719  
Moisture  
Dew Point 19 °F    
Average Humidity 70    
Maximum Humidity 84    
Minimum Humidity 39    
Precipitation  
Precipitation 0.00 in 0.02 in 0.46 in (1972)
Month to date precipitation 0.64  
Year to date precipitation 13.24  
Sea Level Pressure  
Sea Level Pressure 30.26 in    
Wind  
Wind Speed 6 mph (ENE)    
Max Wind Speed 9 mph    
Max Gust Speed -    
Visibility 10 miles    
Events      
T = Trace of Precipitation, MM = Missing Value Source: NWS Daily Summary

Daily Weather History Graph

Daily Weather History Graph

Search for Another Location

Airport:

Trip Planner

Search our weather history database for the weather conditions in past years. The results will help you decide how hot, cold, wet, or windy it might be!

Date:

Astronomy

Nov. 27, 2013 Rise Set
Actual Time 6:48 AM MST 4:42 PM MST
Civil Twilight 6:20 AM MST 5:11 PM MST
Nautical Twilight 5:48 AM MST 5:43 PM MST
Astronomical Twilight 5:17 AM MST 6:14 PM MST
Moon 1:01 AM MST (11/27) 1:13 PM MST (11/27)
Length of Visible Light 10h 50m
Length of Day
9h 54m
Waning Crescent, 31% of the Moon is Illuminated
Nov 27
Waning Crescent
Dec 2
New
Dec 9
First Quarter
Dec 17
Full
Dec 25
Last Quarter

Hourly Weather History & Observations

Time (MST) Temp. Windchill Dew Point Humidity Pressure Visibility Wind Dir Wind Speed Gust Speed Precip Events Conditions
12:53 AM 19.0 °F 10.0 °F 14.0 °F 81% 30.37 in 10.0 mi NE 6.9 mph - N/A   Clear
1:53 AM 18.0 °F 8.7 °F 14.0 °F 84% 30.36 in 10.0 mi NE 6.9 mph - N/A   Clear
2:53 AM 17.1 °F 10.0 °F 12.9 °F 84% 30.35 in 10.0 mi ENE 4.6 mph - N/A   Clear
3:53 AM 16.0 °F 5.3 °F 12.0 °F 84% 30.34 in 10.0 mi ENE 8.1 mph - N/A   Clear
4:53 AM 15.1 °F 5.2 °F 10.9 °F 84% 30.36 in 10.0 mi ENE 6.9 mph - N/A   Clear
5:53 AM 15.1 °F 6.4 °F 10.9 °F 84% 30.38 in 10.0 mi ENE 5.8 mph - N/A   Clear
6:53 AM 17.1 °F 10.0 °F 12.0 °F 81% 30.36 in 10.0 mi ENE 4.6 mph - N/A   Clear
7:53 AM 19.9 °F 13.4 °F 15.1 °F 81% 30.38 in 10.0 mi East 4.6 mph - N/A   Clear
8:53 AM 25.0 °F 18.1 °F 19.0 °F 78% 30.35 in 10.0 mi ENE 5.8 mph - N/A   Clear
9:53 AM 32.0 °F 26.4 °F 21.9 °F 66% 30.32 in 10.0 mi ENE 5.8 mph - N/A   Clear
10:53 AM 37.9 °F - 21.9 °F 53% 30.26 in 10.0 mi Calm Calm - N/A   Clear
11:53 AM 42.1 °F - 21.9 °F 45% 30.20 in 10.0 mi Calm Calm - N/A   Clear
12:53 PM 44.1 °F 41.5 °F 21.0 °F 40% 30.17 in 10.0 mi South 4.6 mph - N/A   Clear
1:53 PM 46.0 °F 42.5 °F 21.9 °F 39% 30.15 in 10.0 mi SW 6.9 mph - N/A   Clear
2:53 PM 46.0 °F 43.1 °F 24.1 °F 42% 30.14 in 10.0 mi SSW 5.8 mph - N/A   Clear
3:53 PM 43.0 °F 38.8 °F 23.0 °F 45% 30.16 in 10.0 mi SSW 6.9 mph - N/A   Clear
4:53 PM 36.0 °F 30.3 °F 25.0 °F 64% 30.21 in 10.0 mi SSW 6.9 mph - N/A   Clear
5:53 PM 32.0 °F 28.7 °F 24.1 °F 73% 30.24 in 10.0 mi NNW 3.5 mph - N/A   Clear
6:53 PM 30.9 °F 23.5 °F 23.0 °F 72% 30.25 in 10.0 mi North 8.1 mph - N/A   Clear
7:53 PM 30.0 °F 25.2 °F 21.9 °F 72% 30.24 in 10.0 mi NNE 4.6 mph - N/A   Clear
8:53 PM 27.0 °F 19.5 °F 21.9 °F 81% 30.23 in 10.0 mi ENE 6.9 mph - N/A   Clear
9:53 PM 26.1 °F 19.4 °F 21.0 °F 81% 30.20 in 10.0 mi NNE 5.8 mph - N/A   Clear
10:53 PM 24.1 °F 15.2 °F 19.9 °F 84% 30.18 in 10.0 mi ENE 8.1 mph - N/A   Clear
11:53 PM 24.1 °F 14.4 °F 19.0 °F 81% 30.15 in 10.0 mi ENE 9.2 mph - N/A   Clear